[[{"header":{"parameterUnit":"m.s-1","parameterCategory":1,"la1":30.2991,"la2":30.254,"lo1":-89.0895,"lo2":-89.0444,"dy":0.0017,"dx":0.0017,"nx":28,"ny":28,"refTime":"2023-07-24T21:00:00:Z","depth":0,"parameterNumber":2,"parameterNumberName":"U-component_of_WINDS"},"data":[0,0,0,0,0,0,0,0,0,0,0,0,0,0,0,0,0,0,0,0,0,0,0,0,0,0,0,0,0,0,0,0,0,0,0,0,0,0,0,0,0,0,0,0,0,0,0,0,0,0,0,0,0,0,0,0,0,0,-0.3023,-0.3021,0,-0.2886,-0.2884,-0.2883,-0.2857,-0.2858,-0.286,-0.2861,-0.2717,-0.2713,-0.2708,0,0,0,0,0,0,0,0,0,0,0,0,0,-0.326,-0.3255,-0.3023,-0.3021,-0.3019,-0.2886,-0.2884,-0.2883,-0.2857,-0.2858,-0.286,-0.2861,-0.2719,-0.2713,-0.2708,0,0,0,0,0,0,0,0,0,0,0,0,0,-0.3143,-0.3254,-0.3023,-0.2991,-0.2987,-0.2887,-0.2884,-0.2882,-0.2857,-0.2858,-0.286,-0.2862,-0.2721,-0.2714,-0.2707,-0.2629,0,0,-0.2685,-0.2681,0,0,0,0,0,0,0,0,-0.315,-0.3134,-0.2997,-0.2993,-0.2988,-0.2891,-0.2915,-0.2797,-0.2856,-0.2906,-0.2861,-0.2863,-0.2774,-0.2762,-0.2733,-0.2622,-0.2616,-0.2684,-0.268,-0.2676,-0.2674,0,0,0,0,0,0,0,-0.3158,-0.314,-0.2969,-0.2995,-0.299,-0.2982,-0.2968,-0.2893,-0.2832,-0.2902,-0.29,-0.2884,-0.2771,-0.274,-0.2729,-0.2614,-0.2684,-0.2678,-0.2673,-0.267,-0.2432,-0.243,0,0,0,0,0,0,-0.3172,-0.3147,-0.2973,-0.2965,-0.3075,-0.2977,-0.296,-0.292,-0.2833,-0.2821,-0.2883,-0.2883,-0.2751,-0.2738,-0.2724,-0.2626,-0.2676,-0.267,-0.2665,-0.2434,-0.2431,-0.2429,0,0,0,0,0,0,-0.3177,-0.3157,-0.2978,-0.3055,-0.3032,-0.2971,-0.2926,-0.2916,-0.2885,-0.2818,-0.2807,-0.2862,-0.2752,-0.2734,-0.2653,-0.2621,-0.2666,-0.266,-0.2436,-0.2433,-0.243,-0.2431,0,0,0,0,0,0,-0.3184,-0.3159,-0.3129,-0.3055,-0.3028,-0.291,-0.2924,-0.2913,-0.2873,-0.2872,-0.2796,-0.2785,-0.2752,-0.2664,-0.2645,-0.2612,-0.2654,-0.2439,-0.2435,-0.2431,-0.2433,-0.2428,-0.2424,0,0,0,0,0,-0.3193,-0.3134,-0.3128,-0.3107,-0.299,-0.2908,-0.2893,-0.2857,-0.287,-0.2839,-0.2797,-0.2787,-0.2628,-0.2656,-0.2635,-0.2598,-0.244,-0.2436,-0.2432,-0.2435,-0.2429,-0.2424,0,0,0,0,0,0,-0.3205,-0.3123,-0.3116,-0.3031,-0.2977,-0.2904,-0.2864,-0.2852,-0.2792,-0.2794,-0.2752,-0.2735,-0.2656,-0.2619,-0.2651,-0.2518,-0.2535,-0.2526,-0.2545,-0.2538,-0.2534,-0.2543,-0.2648,0,0,0,0,0,-0.3198,-0.314,-0.3071,-0.3003,-0.2977,-0.2925,-0.2889,-0.2866,-0.2808,-0.2785,-0.2736,-0.2679,-0.2616,-0.2575,-0.2514,-0.2428,-0.2411,-0.2393,-0.2389,-0.2385,-0.2377,-0.2329,-0.232,-0.2415,-0.2415,-0.2415,0,0,-0.3182,-0.3131,-0.3096,-0.3005,-0.296,-0.29,-0.2906,-0.2842,-0.2797,-0.2774,-0.2695,-0.2657,-0.2591,-0.2507,-0.2468,-0.2474,-0.2348,-0.2379,-0.2377,-0.2371,-0.2324,-0.2315,-0.2307,-0.2412,-0.2412,-0.2413,0,0,-0.3123,-0.3079,-0.3017,-0.2972,-0.2905,-0.2872,-0.2857,-0.2786,-0.2761,-0.268,-0.2662,-0.2608,-0.25,-0.2454,-0.2416,-0.2341,-0.2329,-0.2322,-0.2296,-0.225,-0.2243,-0.2236,-0.2208,-0.2199,-0.2315,-0.2315,-0.2315,0,-0.3111,-0.3021,-0.2986,-0.2923,-0.2883,-0.2862,-0.2799,-0.2757,-0.2673,-0.2645,-0.2654,-0.252,-0.2473,-0.2378,-0.236,-0.2331,-0.2312,-0.233,-0.2247,-0.2239,-0.2232,-0.2206,-0.2195,-0.2314,-0.2314,-0.2314,-0.2315,0,-0.301,-0.2948,-0.2906,-0.2826,-0.2782,-0.2719,-0.2674,-0.2633,-0.2615,-0.258,-0.2499,-0.2443,-0.237,-0.2346,-0.2327,-0.2248,-0.2254,-0.2255,-0.2271,-0.2224,-0.2197,-0.2187,-0.2314,-0.2314,-0.2314,-0.2314,0,0,-0.2952,-0.2856,-0.2841,-0.2805,-0.273,-0.268,-0.2617,-0.2546,-0.2511,-0.2455,-0.2399,-0.231,-0.2311,-0.2268,-0.2244,-0.2204,-0.2147,-0.221,-0.2208,-0.2199,-0.2055,-0.2054,-0.2043,-0.214,-0.2137,-0.2136,-0.2061,0,-0.2883,-0.277,-0.2737,-0.2641,-0.2582,-0.2562,-0.2507,-0.2454,-0.242,-0.2365,-0.2328,-0.2265,-0.2271,-0.2245,-0.2205,-0.2162,-0.2117,-0.2168,-0.2087,-0.2084,-0.2103,-0.2029,-0.2027,-0.1959,-0.205,-0.2049,-0.2047,0,-0.2787,-0.273,-0.2628,-0.2561,-0.2535,-0.2486,-0.2419,-0.2367,-0.2307,-0.2285,-0.2238,-0.2218,-0.215,-0.2171,-0.2077,-0.2112,-0.2077,-0.2052,-0.2048,-0.2038,-0.2062,-0.2016,-0.1936,-0.1926,-0.2031,-0.2032,-0.2034,0,-0.2754,-0.2651,-0.2577,-0.2547,-0.2467,-0.2433,-0.2398,-0.234,-0.23,-0.2241,-0.2214,-0.2149,-0.2112,-0.2061,-0.2024,-0.2043,-0.1932,-0.195,-0.1912,-0.1912,-0.1888,-0.189,-0.18,-0.1868,-0.1868,-0.1868,-0.1868,0,-0.2679,-0.2618,-0.2561,-0.2515,-0.2446,-0.2409,-0.2341,-0.2305,-0.2254,-0.22,-0.2179,-0.2129,-0.2083,-0.2027,-0.1997,-0.1923,-0.1907,-0.1887,-0.1879,-0.1888,-0.189,-0.1863,-0.1867,-0.1865,-0.1866,-0.1866,-0.1867,0,-0.263,-0.259,-0.2508,-0.244,-0.2421,-0.2372,-0.2314,-0.2268,-0.2234,-0.2167,-0.2149,-0.2095,-0.2028,-0.1986,-0.19,-0.1881,-0.1799,-0.1794,-0.1819,-0.1816,-0.1779,-0.1783,-0.1668,-0.1651,-0.1731,-0.1731,-0.173,0,-0.2584,-0.2537,-0.2464,-0.2427,-0.2392,-0.2333,-0.2292,-0.2254,-0.2213,-0.2142,-0.2105,-0.2037,-0.198,-0.1873,-0.1826,-0.1761,-0.1753,-0.1717,-0.1743,-0.1753,-0.1751,-0.1754,-0.1749,-0.1713,-0.1712,-0.1712,-0.1711,0,-0.2507,-0.249,-0.2433,-0.2369,-0.2321,-0.2268,-0.2216,-0.2187,-0.214,-0.2094,-0.2026,-0.1982,-0.1896,-0.1828,-0.1758,-0.1722,-0.1708,-0.1704,-0.1691,-0.1699,-0.1715,-0.1705,-0.1807,-0.1706,-0.1707,-0.1707,-0.1707,-0.1707,-0.2457,-0.2414,-0.2356,-0.2293,-0.225,-0.2202,-0.2156,-0.2117,-0.2059,-0.1986,-0.1968,-0.1896,-0.1838,-0.1744,-0.1706,-0.1649,-0.1653,-0.1635,-0.1631,-0.1626,-0.1625,-0.1726,-0.1636,-0.1636,-0.1636,-0.1636,-0.1636,0,-0.2378,-0.234,-0.2283,-0.2211,-0.2161,-0.2155,-0.2097,-0.2055,-0.1993,-0.194,-0.1885,-0.1807,-0.1741,-0.169,-0.1622,-0.1587,-0.1579,-0.157,-0.1572,-0.1563,-0.1625,-0.1642,-0.1578,-0.1578,-0.1578,-0.1578,-0.1578,-0.1578,-0.2331,-0.2257,-0.2233,-0.2138,-0.21,-0.2031,-0.1998,-0.1953,-0.1911,-0.1825,-0.1771,-0.1738,-0.1686,-0.1615,-0.1554,-0.1541,-0.1516,-0.1509,-0.1494,-0.1552,-0.1559,-0.1565,-0.1581,-0.1504,-0.1504,-0.1437,-0.1436,-0.1436]},{"header":{"parameterUnit":"m.s-1","parameterCategory":1,"la1":30.2991,"la2":30.254,"lo1":-89.0895,"lo2":-89.0444,"dy":0.0017,"dx":0.0017,"nx":28,"ny":28,"refTime":"2023-07-24T21:00:00:Z","depth":0,"parameterNumber":3,"parameterNumberName":"V-component_of_WINDS"},"data":[0,0,0,0,0,0,0,0,0,0,0,0,0,0,0,0,0,0,0,0,0,0,0,0,0,0,0,0,0,0,0,0,0,0,0,0,0,0,0,0,0,0,0,0,0,0,0,0,0,0,0,0,0,0,0,0,0,0,1.5694,1.5694,0,1.5695,1.5695,1.5695,1.5718,1.5719,1.5719,1.572,1.5719,1.5718,1.5718,0,0,0,0,0,0,0,0,0,0,0,0,0,1.5709,1.5708,1.5694,1.5694,1.5694,1.5695,1.5695,1.5695,1.5718,1.5719,1.5719,1.572,1.5719,1.5718,1.5718,0,0,0,0,0,0,0,0,0,0,0,0,0,1.5705,1.5708,1.5694,1.5706,1.5707,1.5695,1.5695,1.5695,1.5718,1.5719,1.572,1.5721,1.5719,1.5719,1.5718,1.5694,0,0,1.5715,1.5715,0,0,0,0,0,0,0,0,1.5705,1.5705,1.5704,1.5705,1.5706,1.5707,1.57,1.5694,1.5718,1.5713,1.572,1.5721,1.5714,1.5714,1.5712,1.5694,1.5694,1.5715,1.5714,1.5714,1.5714,0,0,0,0,0,0,0,1.5706,1.5705,1.5694,1.5704,1.5705,1.571,1.571,1.5699,1.5709,1.5714,1.5716,1.5716,1.5715,1.5713,1.5712,1.5694,1.5715,1.5714,1.5714,1.5713,1.5653,1.5652,0,0,0,0,0,0,1.5705,1.5705,1.5694,1.5694,1.5708,1.5709,1.5709,1.5706,1.5709,1.571,1.5715,1.5717,1.5714,1.5713,1.5712,1.5682,1.5714,1.5713,1.5713,1.5654,1.5653,1.5652,0,0,0,0,0,0,1.5705,1.5703,1.5694,1.57,1.5699,1.5707,1.5703,1.5705,1.5703,1.571,1.5711,1.5711,1.5714,1.5713,1.5698,1.5682,1.5713,1.5712,1.5655,1.5654,1.5652,1.5623,0,0,0,0,0,0,1.5705,1.5703,1.5695,1.5699,1.5699,1.568,1.5703,1.5705,1.5702,1.5704,1.5706,1.5707,1.5715,1.5699,1.5697,1.5682,1.5711,1.5657,1.5655,1.5653,1.5626,1.5621,1.5617,0,0,0,0,0,1.5706,1.5687,1.5695,1.5693,1.5689,1.568,1.5679,1.5689,1.5701,1.5692,1.5695,1.5707,1.5685,1.5697,1.5695,1.5679,1.5658,1.5655,1.5653,1.5628,1.5622,1.5617,0,0,0,0,0,0,1.5681,1.5688,1.5696,1.5679,1.5679,1.5684,1.5673,1.5683,1.5678,1.5681,1.5692,1.5693,1.5674,1.5676,1.5689,1.5655,1.5673,1.567,1.5655,1.5649,1.5645,1.5644,1.571,0,0,0,0,0,1.5673,1.5666,1.5673,1.5657,1.5656,1.5664,1.5661,1.5668,1.5668,1.5667,1.567,1.5668,1.5661,1.5655,1.5649,1.5626,1.5626,1.5615,1.561,1.5607,1.5603,1.5589,1.5583,1.5644,1.5644,1.5644,0,0,1.5658,1.5661,1.5656,1.5652,1.5652,1.5643,1.5664,1.5654,1.5647,1.5666,1.565,1.5652,1.5651,1.5631,1.5622,1.5632,1.5586,1.5604,1.5601,1.5599,1.5585,1.558,1.5574,1.5642,1.5642,1.5643,0,0,1.5624,1.5627,1.5613,1.5613,1.5613,1.5618,1.5615,1.5618,1.562,1.5605,1.5618,1.5609,1.5597,1.5594,1.5591,1.5555,1.5565,1.5553,1.5529,1.5515,1.551,1.5506,1.549,1.5485,1.555,1.555,1.555,0,1.5605,1.5592,1.5604,1.5593,1.5589,1.5607,1.5591,1.559,1.5588,1.5584,1.5595,1.5578,1.5578,1.5557,1.5547,1.5546,1.554,1.5552,1.551,1.5506,1.5502,1.5487,1.5481,1.5548,1.5548,1.5548,1.5549,0,1.5567,1.5558,1.5546,1.5543,1.5539,1.5526,1.5534,1.5528,1.5535,1.5539,1.5522,1.5523,1.5516,1.5512,1.552,1.5491,1.5496,1.5508,1.5526,1.5494,1.548,1.5475,1.5546,1.5546,1.5547,1.5547,0,0,1.5518,1.5521,1.5516,1.5514,1.5515,1.5507,1.5494,1.5487,1.548,1.5478,1.5465,1.5453,1.5464,1.546,1.5468,1.5455,1.5423,1.5469,1.5469,1.5458,1.5388,1.5377,1.537,1.543,1.5429,1.5428,1.5387,0,1.5483,1.5461,1.547,1.5446,1.5436,1.5452,1.544,1.5438,1.5441,1.5432,1.5435,1.5425,1.5441,1.5439,1.5427,1.5429,1.5409,1.5433,1.5416,1.5415,1.5414,1.5364,1.5353,1.5313,1.5382,1.5381,1.538,0,1.5441,1.5436,1.5411,1.5411,1.5407,1.5396,1.5389,1.5381,1.5379,1.5382,1.5377,1.5386,1.5371,1.539,1.5368,1.5384,1.5378,1.5378,1.5376,1.5373,1.5394,1.5357,1.5301,1.5294,1.5373,1.5373,1.5374,0,1.5404,1.5392,1.5374,1.5372,1.5373,1.5364,1.5364,1.5363,1.5357,1.5351,1.5347,1.5339,1.5334,1.5327,1.5333,1.5347,1.5309,1.5329,1.5308,1.5308,1.5298,1.5298,1.5239,1.5298,1.5298,1.5298,1.5299,0,1.5363,1.5347,1.5357,1.5346,1.5327,1.5338,1.5318,1.532,1.5318,1.5306,1.532,1.5308,1.5318,1.5307,1.5312,1.5291,1.5289,1.5289,1.529,1.5287,1.5286,1.5281,1.5283,1.5297,1.5297,1.5298,1.5298,0,1.5319,1.5326,1.5307,1.5309,1.5309,1.5295,1.5295,1.5284,1.5288,1.5273,1.527,1.5275,1.5262,1.5268,1.5255,1.5258,1.523,1.5236,1.5231,1.5231,1.5209,1.521,1.5142,1.5133,1.5201,1.52,1.52,0,1.5291,1.5279,1.5279,1.5272,1.5271,1.526,1.5254,1.5264,1.5257,1.5252,1.524,1.5229,1.522,1.5199,1.52,1.519,1.5194,1.5171,1.5192,1.5188,1.519,1.519,1.5187,1.5166,1.5165,1.5164,1.5164,0,1.5241,1.5244,1.5236,1.5228,1.522,1.5215,1.521,1.5203,1.5212,1.5203,1.519,1.5184,1.5169,1.5157,1.5147,1.5145,1.5155,1.5157,1.5151,1.5146,1.5143,1.5141,1.5216,1.5158,1.5159,1.5159,1.516,1.516,1.5202,1.5191,1.5188,1.5178,1.5175,1.5169,1.5158,1.516,1.515,1.5139,1.5145,1.513,1.5125,1.5113,1.511,1.5096,1.5105,1.5097,1.5095,1.5092,1.5088,1.5147,1.5095,1.5095,1.5095,1.5095,1.5095,0,1.515,1.5149,1.5139,1.5132,1.5123,1.5134,1.5128,1.5119,1.5105,1.5101,1.5092,1.5075,1.5063,1.5063,1.5051,1.504,1.5044,1.5036,1.5036,1.5034,1.5082,1.5087,1.5033,1.5033,1.5033,1.5033,1.5033,1.5033,1.5122,1.5102,1.5105,1.5083,1.5082,1.5067,1.5062,1.5056,1.5053,1.5034,1.5024,1.5024,1.5021,1.5008,1.4996,1.4996,1.499,1.498,1.4981,1.5025,1.5032,1.5037,1.5042,1.4979,1.4979,1.4935,1.4934,1.4934]}]]